Regional Weather Roundup
Issued by NWS

Home | Current Version | Previous Version | Text Only | Print | Product List | Glossary On
Versions: 1 2 3 4 5 6 7 8 9 10 11 12 13 14 15 16 17 18 19 20 21 22 23 24 25 26 27 28 29 30 31 32 33 34 35 36 37 38 39 40 41 42 43 44 45 46 47 48 49 50
000
ASUS43 KFSD 020410
RWRSD

WEATHER ROUNDUP FOR SOUTH DAKOTA
NATIONAL WEATHER SERVICE SIOUX FALLS SD
1100 PM CDT MON JUN 01 2015

NOTE: "FAIR" INDICATES FEW OR NO CLOUDS BELOW 12,000 FEET WITH NO
SIGNIFICANT WEATHER AND/OR OBSTRUCTIONS TO VISIBILITY.


SDZ001>005-009-010-012>017-020500-
NORTHWEST AND NORTH CENTRAL SOUTH DAKOTA

CITY           SKY/WX    TMP DP  RH WIND       PRES   REMARKS
BUFFALO          N/A     70  60  70 E10       29.71R
FAITH            N/A     73  59  61 SE17      29.78S
MOBRIDGE       MOCLDY    70  62  76 SE16      29.80R
$$

SDZ012>016-024>037-041>051-057-063-072>074-020500-
SOUTHWEST AND SOUTH CENTRAL SOUTH DAKOTA

CITY           SKY/WX    TMP DP  RH WIND       PRES   REMARKS
RAPID CTY ARPT CLOUDY    71  51  49 E13       29.85R
PIERRE         CLOUDY    70  61  73 SE7       29.84R
CUSTER         CLOUDY    66  43  43 W12       30.02R
ELLSWORTH AFB  CLOUDY    65  56  72 SE15G26   29.83
PHILIP         CLOUDY    73  62  68 S8        29.83R
PINE RIDGE     CLOUDY    67  53  61 S9        29.89S
SPEARFISH      MOCLDY    68  50  52 SW41G54   29.87R
WINNER         FAIR      72  58  61 S22G29    29.90S
$$

SDZ004>011-016>023-039-040-020500-
NORTHEAST SOUTH DAKOTA

CITY           SKY/WX    TMP DP  RH WIND       PRES   REMARKS
ABERDEEN       CLEAR     69  57  65 S13       29.89R
WATERTOWN      CLEAR     66  49  54 S14       29.97R
BROOKINGS      CLEAR     66  48  52 S14       30.01R
SISSETON         N/A     64  51  62 S10       29.93R
$$

SDZ017-020-022-023-036>040-048>070-020500-
SOUTHEAST SOUTH DAKOTA

CITY           SKY/WX    TMP DP  RH WIND       PRES   REMARKS
SIOUX FALLS    PTCLDY    68  49  50 S14G24    30.01R
HURON          CLEAR     69  53  56 SE13      29.91R
CHAMBERLAIN    CLOUDY    69  59  70 S13       29.92R
MITCHELL       CLEAR     69  54  58 S14       29.94R
YANKTON        PTCLDY    68  50  52 SE14G20   29.99R
$$

ABBREVIATIONS USED IN REMARKS
   TC - TEMPERATURE IN CELSIUS
  WCI - WIND CHILL INDEX
   HX - HEAT INDEX
  VSB - VISIBILITY



USA.gov is the U.S. government's official web portal to all federal, state and local government web resources and services.